Regional Weather Roundup
Issued by NWS Grand Forks, ND

Home | Current Version | Previous Version | Text Only | Print | Product List | Glossary On
Versions: 1 2 3 4 5 6 7 8 9 10 11 12 13 14 15 16 17 18 19 20 21 22 23 24 25 26 27 28 29 30 31 32 33 34 35 36 37 38 39 40 41 42 43 44 45 46 47 48 49 50
000
ASUS43 KFGF 011431
RWRFGF
PRAIRIE TO PINES  WEATHER ROUNDUP
NATIONAL WEATHER SERVICE EASTERN NORTH DAKOTA/GRAND FORKS ND
900 AM CDT FRI AUG 01 2014

 **SATELLITE DATA USED TO AUGMENT SKY COVER AT AUTOMATED STATIONS**
 *****  WEATHER ACROSS EASTERN NORTH DAKOTA  *****

CITY           SKY/WX    TMP DP  RH WIND       PRES   REMARKS
GRAND FORKS    SUNNY     67  61  81 N6        30.06R
GRAND FRKS AFB SUNNY     67  63  86 NE5       30.07S
GRAND FRKS NWS   N/A     68 N/A N/A N5          N/A
DEVILS LAKE    SUNNY     72  59  64 SE3       30.08R
FARGO          SUNNY     67  61  81 N3        30.06S
WAHPETON ARPT  SUNNY     70  55  60 NW6       30.07R
$$

 ***** WEATHER ACROSS CENTRAL AND WESTERN NORTH DAKOTA  *****

CITY           SKY/WX    TMP DP  RH WIND       PRES   REMARKS
BISMARCK       SUNNY     69  58  67 E5        30.08R
MINOT          SUNNY     66  60  81 N3        30.08R
JAMESTOWN      SUNNY     69  60  73 N3        30.08S
MINOT AFB      SUNNY     66  64  93 E2        30.08R
GARRISON         N/A     68  61  78 SE5       30.07S
WILLISTON      MOSUNNY   69  56  62 N13       30.08R
DICKINSON      SUNNY     65  57  75 E5        30.04S
HETTINGER      SUNNY     65  56  72 CALM      30.08R
$$

 *****  OTHER AIRPORT OBSERVATIONS IN OUR AREA  *****

CITY           SKY/WX    TMP DP  RH WIND       PRES   REMARKS
WALHALLA         N/A     68  66  94 N3          N/A
GRAFTON AIRPOR FAIR      68  59  73 NE3       30.07S HAZE
VALLEY CITY AR FAIR      70  64  83 CALM      30.09R
CANDO          FAIR      66  59  77 CALM      30.10S
CAVALIER APRT  FAIR      70  59  68 NW5       30.07S
GWINNER        SUNNY     70  63  78 W5        30.10R
ROLLA          FAIR      68  63  83 CALM      30.13R
 ***** THE ABOVE OBSERVATIONS ARE NON NWS ARE NOT QUALITY
       CONTROLLED AND MAY MIS-REPORT RAIN FOR SNOW...
$$

  *****  WEATHER ACROSS NORTHERN MINNESOTA  *****

CITY           SKY/WX    TMP DP  RH WIND       PRES   REMARKS
FLAG ISLAND    SUNNY     70  57  64 CALM      30.06R
WARROAD        SUNNY     66  63  88 CALM      30.07R FOG
ROSEAU         SUNNY     64  59  82 CALM      30.07S
HALLOCK        SUNNY     70  61  73 N5        30.07R
THF RVR FALLS  SUNNY     66  57  72 NW6       30.07S
BAUDETTE       SUNNY     64  60  87 CALM      30.06S
WASKISH        SUNNY     64  63  94 CALM      30.06S
CROOKSTON      SUNNY     70  63  78 N3        30.07S
$$
  *****  WEATHER ACROSS CENTRAL AND WEST MINNESOTA  *****

CITY           SKY/WX    TMP DP  RH WIND       PRES   REMARKS
FOSSTON        SUNNY     66  61  82 CALM      30.07F
BEMIDJI        SUNNY     68  60  74 NW5       30.07S
PARK RAPIDS    MOSUNNY   67  62  84 CALM      30.08R
ELBOW LAKE     FAIR      68  62  81 NW6       30.07S
WADENA         MOSUNNY   68  63  83 CALM      30.07S
DETROIT LAKES  SUNNY     70  59  68 CALM      30.08S
MOORHEAD       SUNNY     66  66 100 CALM      30.07S
FERGUS FALLS   SUNNY     70  61  73 CALM      30.06F
MORRIS MN      SUNNY     72  63  73 NW6       30.07S
STAPLES        PTSUNNY   66  61  82 CALM      30.08R
$$
  *****  WEATHER ELSEWHERE ACROSS MINNESOTA  *****

CITY           SKY/WX    TMP DP  RH WIND       PRES   REMARKS
DULUTH         SUNNY     63  54  72 SE3       30.07S
INTRNTL FALLS  SUNNY     64  59  83 CALM      30.06R
ELY            SUNNY     61  54  77 CALM      30.07S
CLOQUET        SUNNY     64  55  72 CALM      30.07S
WHEATON        MOSUNNY   66  61  82 W5        30.09R
BRAINERD       SUNNY     67  63  87 CALM      30.08
HIBBING        MOSUNNY   64  57  78 CALM      30.06F
ALEXANDRIA     MOSUNNY   68  62  81 CALM      30.09S
SAINT CLOUD    SUNNY     71  62  73 CALM      30.06S
MINNEAPOLIS    SUNNY     71  61  70 W3        30.06S
$$

  *****  WEATHER ACROSS SOUTH DAKOTA  *****

CITY           SKY/WX    TMP DP  RH WIND       PRES   REMARKS
SIOUX FALLS    MOSUNNY   67  61  81 CALM      30.11S
BROOKINGS      NOT AVBL
WATERTOWN      SUNNY     67  60  78 CALM      30.10S
HURON          SUNNY     65  59  81 SE3       30.09R
SISSETON         N/A     69  62  78 NE3       30.07S
ABERDEEN       SUNNY     65  58  78 CALM      30.09R
MITCHELL       SUNNY     67  62  84 CALM      30.10S
PIERRE         SUNNY     69  62  78 SE9       30.06S
MOBRIDGE       SUNNY     70  62  76 S12       30.05S
RAPID CITY     SUNNY     71  55  56 CALM      30.11R
$$

  *****  SOME WEATHER IN NEARBY STATES *****

CITY           SKY/WX    TMP DP  RH WIND       PRES   REMARKS
GLASGOW MT     SUNNY     72  57  59 E5        30.07R
GREAT FALLS MT MOSUNNY   64  45  48 W6        30.19R
CHEYENNE WY    SUNNY     60  47  61 MISG      30.31S
SCOTTSBLUFF NE SUNNY     65  52  62 NW3       30.21R
OMAHA NE       PTSUNNY   69  60  73 CALM      30.08R
DES MOINES IA  MOSUNNY   73  62  68 CALM      30.09R
DAVENPORT IA   SUNNY     72  61  68 S9        30.09F
CHICAGO IL     MOSUNNY   74  56  53 W7        30.08F
EAU CLAIRE WI  SUNNY     69  61  75 W6        30.05S
LA CROSSE WI   SUNNY     70  60  70 S3        30.07R
$$

  *****  SOME NATIONAL WEATHER *****

CITY           SKY/WX    TMP DP  RH WIND       PRES   REMARKS
LA GUARDIA NY  PTSUNNY   80  67  64 VRB3      30.18S
RALEIGH NC     CLOUDY    74  68  81 NE8       30.12S
ATLANTA GA     CLOUDY    70  64  83 NE9       30.09S
NEW ORLEANS LA PTSUNNY   83  70  64 VRB3      30.01R
OKLAHOMA CITY  PTSUNNY   73  66  78 NE5       30.11R
ALBUQUERQUE NM MOSUNNY   66  55  67 NE6       30.29S
SALT LAKE CITY MOSUNNY   69  52  54 SE7       30.16R
LOS ANGELES CA CLOUDY    67  62  84 VRB3      29.92R
BOISE ID       SUNNY     71  49  45 SE7       30.06F
SEATTLE WA     PTSUNNY   62  53  72 CALM      30.08R
$$

*** WEATHER ACROSS MANITOBA...SASKATCHEWAN AND ONTARIO ***
                ***ONTARIO***

CITY           SKY/WX    TMP DP  RH WIND       PRES   REMARKS
GERALDTON      PTSUNNY   55  52  88 CALM      30.07R
THUNDER BAY    PTSUNNY   63  57  82 W2        30.06S
SIOUX LOOKOUT  MOSUNNY   66  57  72 NW7       30.07
TORONTO        MOSUNNY   73  61  64 S6        30.11S
BIG TROUT LK   CLOUDY    55  50  82 S5        30.06S
PICKLE LAKE    MOSUNNY   61  52  72 VRB2      30.04S
DRYDEN         SUNNY     66  55  68 NW5       30.08R
KENORA         MOSUNNY   66  59  77 N5        30.09R
$$
                *** MANITOBA***

CITY           SKY/WX    TMP DP  RH WIND       PRES   REMARKS
BRANDON        PTSUNNY   66  61  82 VRB2      30.10S
DAUPHIN        SUNNY     70  61  73 W9        30.07R
ISLAND LAKE    CLOUDY    64  57  77 SW2       30.06R
PILOT MOUND      N/A     66  59  77 SW3         N/A
THE PAS        TSTM     N/A N/A N/A NE2         N/A
THOMPSON       CLOUDY   N/A N/A N/A CALM        N/A
WINNIPEG       SUNNY     68  57  68 CALM      30.07S
LYNN LAKE      MOSUNNY   66  61  82 N7        30.03R
CHURCHILL      PTSUNNY   61  52  72 S10       29.94S
GILLAM         CLOUDY    66  55  68 S12       29.98F
$$
                ***SASKATCHEWAN***

CITY           SKY/WX    TMP DP  RH WIND       PRES   REMARKS
ESTEVAN        NOT AVBL
KINDERSLEY     LGT RAIN  61  57  88 N14       30.15F
LLOYDMINSTER   CLOUDY    63  59  88 W5        30.19R
PRINCE ALBERT  PTSUNNY   66  63  88 CALM      30.11R
REGINA           N/A     68  59  73 E10       30.09S
YORKTON          N/A     68  63  83 CALM      30.10S
N. BATTLEFORD    N/A     64  61  88 N8        30.15R
LA RONGE       PTSUNNY   64  61  88 NW9       30.09R
SASKATOON      PTSUNNY   64  61  88 N3        30.13R
SWIFT CURRENT  SUNNY     63  55  77 SW3       30.14R
$$
NOTE: THESE ARE AUTOMATED STATIONS WITH LIMITED QUALITY CONTROL
      "FAIR" INDICATES FEW OR NO CLOUDS BELOW 12,000 FEET WITH NO
      SIGNIFICANT WEATHER AND/OR OBSTRUCTIONS TO VISIBILITY.
      SKY/WX - SKY CONDITION AND SIGNIFICANT WEATHER.
      TMP - AIR TEMPERATURE.    DP   - DEWPOINT TEMPERATURE.
      RH  - RELATIVE HUMIDITY.  PRES - PRESSURE.
      HX  - HEAT INDEX.         WCI  - WIND CHILL INDEX.
$



USA.gov is the U.S. government's official web portal to all federal, state and local government web resources and services.